Location: Jaworzyna Śląska
(50.9128°N, 16.4318°E)
Time: 11:46:48
(UTC+02:00)

OTV 5 (USA 277) - Visible Passes

Search period start: 25 April 2019 00:00
Search period end: 05 May 2019 00:00
Orbit: 309 x 326 km, 54.5° (Epoch: 21 April)

Date Brightness Start Highest point End Pass type
(mag) Time Alt. Az. Time Alt. Az. Time Alt. Az.
25 Apr ? 21:53:03 10° WSW 21:55:47 86° SSE 21:57:17 23° ENE visible
25 Apr ? 23:27:44 10° WNW 23:28:14 14° WNW 23:28:14 14° WNW visible
26 Apr ? 22:07:52 10° W 22:10:33 55° NNW 22:12:13 20° ENE visible
26 Apr ? 23:42:38 10° WNW 23:43:08 14° WNW 23:43:08 14° WNW visible
27 Apr ? 20:48:15 10° SW 20:50:58 61° SSE 20:53:40 10° ENE visible
27 Apr ? 22:22:47 10° W 22:25:24 40° N 22:26:46 22° NE visible
27 Apr ? 23:57:26 10° WNW 23:57:40 12° WNW 23:57:40 12° WNW visible
28 Apr ? 21:02:57 10° WSW 21:05:41 71° NNW 21:08:24 10° ENE visible
28 Apr ? 22:37:43 10° WNW 22:40:16 35° N 22:41:06 28° NE visible
29 Apr ? 21:17:49 10° W 21:20:29 45° NNW 21:23:08 10° ENE visible
29 Apr ? 22:52:33 10° WNW 22:55:09 38° N 22:55:18 37° NNE visible
30 Apr ? 21:32:45 10° WNW 21:35:20 37° N 21:37:55 10° ENE visible
30 Apr ? 23:07:19 10° WNW 23:09:24 40° NNW 23:09:24 40° NNW visible
01 May ? 21:47:38 10° WNW 21:50:13 36° N 21:52:36 11° ENE visible
01 May ? 23:22:02 10° WNW 23:23:29 27° WNW 23:23:29 27° WNW visible
02 May ? 22:02:26 10° WNW 22:05:04 42° N 22:06:38 20° ENE visible
02 May ? 23:36:48 10° WNW 23:37:31 16° WNW 23:37:31 16° WNW visible
03 May ? 22:17:10 10° WNW 22:19:53 63° NNE 22:20:40 39° E visible
04 May ? 20:57:32 10° WNW 21:00:08 38° N 21:02:43 10° E visible
04 May ? 22:31:54 10° WNW 22:34:37 72° SSW 22:34:42 71° S visible
